DW7685 Weather Reports


Display with metric or nautical units.
time (UTC)temp
F
wind
direction
speed
MPH
gust
MPH
rain 1hr
in
rain 24hr
in
rain mn
in
humidity
%
barometer
mb
20260503214248 59 44 0.0 4.0 0.00 0.00 0.00 35 1014.9
20260503213240 58 45 0.0 3.0 0.00 0.00 0.00 35 1015.0
20260503212228 58 66 0.0 0.0 0.00 0.00 0.00 34 1015.1
20260503211250 58 12 0.0 0.0 0.00 0.00 0.00 36 1015.2
20260503210257 58 69 0.0 8.0 0.00 0.00 0.00 32 1015.2
20260503205228 59 15 0.0 2.0 0.00 0.00 0.00 33 1015.2
20260503204156 58 108 0.0 0.0 0.00 0.00 0.00 33 1015.3
20260503203200 59 29 0.0 2.0 0.00 0.00 0.00 33 1015.3
20260503202134 59 68 0.0 0.0 0.00 0.00 0.00 34 1015.4
20260503201102 58 74 0.0 1.0 0.00 0.00 0.00 34 1015.6
20260503200033 58 77 0.0 0.0 0.00 0.00 0.00 35 1015.8
20260503195017 58 37 0.0 6.0 0.00 0.00 0.00 35 1015.8
20260503194017 58 121 1.0 12.0 0.00 0.00 0.00 35 1015.8
20260503193037 59 29 0.0 4.0 0.00 0.00 0.00 35 1015.9
20260503192041 59 76 0.0 0.0 0.00 0.00 0.00 36 1016.0
20260503191020 59 162 0.0 0.0 0.00 0.00 0.00 33 1016.2
20260503190014 59 80 0.0 0.0 0.00 0.00 0.00 35 1016.3
20260503185002 57 11 0.0 2.0 0.00 0.00 0.00 36 1016.6
20260503183941 56 39 0.0 0.0 0.00 0.00 0.00 36 1016.5
20260503182952 56 136 0.0 1.0 0.00 0.00 0.00 38 1016.7
20260503180814 57 55 0.0 0.0 0.00 0.00 0.00 36 1016.8
20260503175754 56 134 0.0 0.0 0.00 0.00 0.00 36 1016.8
20260503174736 56 120 0.0 8.0 0.00 0.00 0.00 38 1016.7
20260503173710 56 73 0.0 0.0 0.00 0.00 0.00 40 1016.9
20260503171609 54 60 0.0 7.0 0.00 0.00 0.00 39 1017.2
20260503170548 53 89 0.0 8.0 0.00 0.00 0.00 44 1017.4
20260503130741 42 128 0.0 1.0 0.00 0.00 0.00 65 1017.8
20260503110352 34 338 0.0 0.0 0.00 0.00 0.00 71 1016.8
20260503100222 34 308 0.0 0.0 0.00 0.00 0.00 71 1015.9
20260503090124 35 5 0.0 0.0 0.00 0.00 0.00 71 1015.7
20260503081042 36 45 0.0 0.0 0.00 0.00 0.00 71 1015.5
20260503072054 36 44 0.0 0.0 0.00 0.00 0.00 70 1015.0
20260503071100 36 44 0.0 0.0 0.00 0.00 0.00 71 1015.1
20260503054932 37 349 0.0 0.0 0.00 0.00 0.00 72 1014.7
20260503053934 37 31 0.0 0.0 0.00 0.00 0.00 71 1014.7
20260503052936 37 62 0.0 0.0 0.00 0.00 0.00 71 1014.8
20260503051917 37 62 0.0 0.0 0.00 0.00 0.00 71 1014.8
20260503050909 38 33 0.0 0.0 0.00 0.00 0.00 71 1014.7
20260503045935 38 33 0.0 2.0 0.00 0.00 0.00 71 1014.9
20260503044944 38 0 0.0 0.0 0.00 0.00 0.00 71 1015.0
20260503043954 38 355 0.0 0.0 0.00 0.00 0.00 70 1014.9
20260503042942 38 22 0.0 0.0 0.00 0.00 0.00 71 1015.0
20260503041940 39 22 0.0 0.0 0.00 0.00 0.00 70 1015.0
20260503034654 39 22 0.0 0.0 0.00 0.00 0.00 70 1014.9
20260503032546 40 316 0.0 0.0 0.00 0.00 0.00 69 1014.8
20260503030341 40 317 0.0 0.0 0.00 0.00 0.00 70 1014.8
20260503025359 40 349 0.0 0.0 0.00 0.00 0.00 69 1014.8
20260503024345 40 349 0.0 0.0 0.00 0.00 0.00 68 1014.8
20260503023338 41 321 0.0 0.0 0.00 0.00 0.00 68 1014.7
20260503022332 41 273 0.0 0.0 0.00 0.00 0.00 67 1014.8
20260503021342 41 333 0.0 1.0 0.00 0.00 0.00 66 1014.6
20260503020331 41 269 0.0 3.0 0.00 0.00 0.00 65 1014.6
20260503015324 42 26 0.0 0.0 0.00 0.00 0.00 64 1014.5
20260503012041 43 92 0.0 0.0 0.00 0.00 0.00 60 1014.2
20260503005836 44 40 0.0 0.0 0.00 0.00 0.00 59 1013.8
20260503004837 44 41 0.0 0.0 0.00 0.00 0.00 58 1013.7
20260503003807 44 32 0.0 0.0 0.00 0.00 0.00 58 1013.7
20260503002801 45 5 0.0 0.0 0.00 0.00 0.00 57 1013.4
20260503001825 45 9 0.0 0.0 0.00 0.00 0.00 56 1013.3
20260503000835 46 341 0.0 0.0 0.00 0.00 0.00 55 1013.1
20260502235816 46 338 0.0 0.0 0.00 0.00 0.00 54 1013.1
20260502232517 47 39 0.0 2.0 0.00 0.00 0.00 51 1012.6
20260502231512 47 34 0.0 0.0 0.00 0.00 0.00 51 1012.6
20260502230528 47 30 0.0 0.0 0.00 0.00 0.00 50 1012.5
20260502225537 48 31 0.0 0.0 0.00 0.00 0.00 51 1012.4
20260502224526 48 53 0.0 0.0 0.00 0.00 0.00 49 1012.4
20260502223533 48 74 0.0 0.0 0.00 0.00 0.00 48 1012.4
20260502221403 49 24 0.0 0.0 0.00 0.00 0.00 50 1012.3
20260502220353 49 91 0.0 0.0 0.00 0.00 0.00 46 1012.2